{"data":{"norad_id":60945,"epoch":"2026-05-24T20:33:54.300672Z","epoch_age_seconds":83837,"freshness":"FRESH","line1":"1 60945U 24156A   26144.85687848  .00042623  00000+0  80260-3 0  9998","line2":"2 60945  34.9956 305.3067 0003573  45.7373 314.3642 15.47461197 96343","mean_motion":15.47461197,"eccentricity":0.0003573,"inclination_deg":34.9956,"raan_deg":305.3067,"arg_perigee_deg":45.7373,"mean_anomaly_deg":314.3642,"bstar":0.0008026,"rev_number":9634,"period_min":93.055645129692,"perigee_km":421.72545922454,"apogee_km":426.58637774409,"semimajor_km":6802.2929184843,"source":"CELESTRAK","updated_at":"2026-05-25T13:38:02.265311Z"}}